Location: Caltech
(34.1382°N, 118.1253°W)
Time: 23:12:54
(UTC-07:00)

Iridium 21 - Visible Passes

Search period start: 28 May 2015 00:00
Search period end: 07 June 2015 00:00
Orbit: 776 x 779 km, 86.4° (Epoch: 28 May)

Date Brightness Start Highest point End Pass type
(mag) Time Alt. Az. Time Alt. Az. Time Alt. Az.
28 May 7.9 21:20:16 10° SW 21:24:26 23° W 21:28:29 10° NNW visible
29 May 6.8 20:45:44 10° SSW 20:50:42 44° W 20:55:40 10° NNW visible
31 May 8.3 21:21:33 10° WSW 21:24:45 16° WNW 21:27:43 10° NW visible
01 Jun 7.6 20:46:21 10° SW 20:50:55 30° W 20:55:25 10° NNW visible
04 Jun 8.2 20:47:18 10° SW 20:51:11 20° WNW 20:54:55 10° NNW visible
